Hoquiam, WA
on Sunday, February 24, 2013

Sunday
Previous Day Next Day
Daily Summary
 ActualAverageRecord
Temperature
Mean Temperature °F 44°F  
Max Temperature 46°F 51°F 63°F (1970)
Min Temperature 39°F 38°F 26°F (2006)
Degree Days
Heating Degree Days 22 21  
Month to date heating degree days 514  
Cooling Degree Days 0 0  
Month to date cooling degree days 0  
Year to date cooling degree days 0  
Moisture
Dew Point 40°F   
Average Humidity 87    
Maximum Humidity 97    
Minimum Humidity 71    
Precipitation
Precipitation 0.22 in 0.24 in 1.56 in (1979)
Month to date precipitation 6.24  
Year to date precipitation 16.57  
Wind
Wind Speed 11 mph   
Max Wind Speed 25 mph   
Max Gust Speed 32 mph   
Visibility 7 miles   
Events Rain   

Key: T is trace of precipitation, MM is missing value
Source: NWS Daily Summary
Time(PST)TemperatureDew PointHumidity Pressure Visibility Wind DirectionWind SpeedGust SpeedPrecipitationEvents Conditions
12:53 AM 39.9°F 39.0°F 97% 30.41 in 7.0 miles ENE 3.5 mph - N/A   Overcast
1:53 AM 39.9°F 37.9°F 93% 30.40 in 9.0 miles ENE 4.6 mph - N/A   Overcast
2:53 AM 41.0°F 37.9°F 89% 30.39 in 10.0 miles ENE 5.8 mph - N/A   Overcast
3:53 AM 41.0°F 37.9°F 89% 30.37 in 10.0 miles East 5.8 mph - N/A   Overcast
4:39 AM 41.0°F 37.4°F 87% 30.36 in 9.0 miles East 5.8 mph - 0.00 in Rain Light Rain
4:53 AM 41.0°F 37.9°F 89% 30.37 in 10.0 miles East 4.6 mph - 0.00 in   Overcast
5:08 AM 41.0°F 37.4°F 87% 30.36 in 10.0 miles ENE 5.8 mph - N/A   Overcast
5:53 AM 42.1°F 37.9°F 85% 30.36 in 10.0 miles ESE 9.2 mph - N/A   Overcast
6:53 AM 43.0°F 37.9°F 82% 30.35 in 10.0 miles ESE 10.4 mph - N/A   Overcast
7:08 AM 42.8°F 37.4°F 81% 30.33 in 10.0 miles SE 9.2 mph - N/A   Overcast
7:53 AM 43.0°F 37.9°F 82% 30.34 in 10.0 miles SE 9.2 mph - N/A   Overcast
8:03 AM 42.8°F 39.2°F 87% 30.33 in 10.0 miles SE 9.2 mph - N/A   Overcast
8:53 AM 44.1°F 39.9°F 85% 30.34 in 10.0 miles SSE 12.7 mph - 0.00 in   Overcast
9:53 AM 45.0°F 41.0°F 86% 30.32 in 8.0 miles South 15.0 mph - N/A   Overcast
10:19 AM 46.4°F 42.8°F 87% 30.31 in 8.0 miles South 21.9 mph 26.5 mph N/A   Overcast
10:29 AM 44.6°F 41.0°F 87% 30.30 in 9.0 miles South 15.0 mph - N/A   Overcast
10:44 AM 44.6°F 41.0°F 87% 30.30 in 4.0 miles SSE 15.0 mph - N/A   Overcast
10:53 AM 45.0°F 42.1°F 90% 30.31 in 4.0 miles SSE 13.8 mph - 0.01 in Rain Light Rain
11:10 AM 44.6°F 42.8°F 93% 30.30 in 2.5 miles SSE 15.0 mph - 0.00 in   Overcast
11:21 AM 44.6°F 42.8°F 93% 30.29 in 3.0 miles SSE 15.0 mph - 0.00 in Rain Light Rain
11:32 AM 44.6°F 42.8°F 93% 30.29 in 5.0 miles SSE 15.0 mph 21.9 mph 0.00 in   Overcast
11:53 AM 45.0°F 42.1°F 90% 30.30 in 6.0 miles South 18.4 mph 25.3 mph 0.00 in   Overcast
12:53 PM 45.0°F 42.1°F 90% 30.28 in 4.0 miles South 17.3 mph - 0.01 in Rain Light Rain
1:19 PM 44.6°F 42.8°F 93% 30.25 in 5.0 miles South 15.0 mph 24.2 mph 0.00 in Rain Light Rain
1:32 PM 46.4°F 42.8°F 87% 30.24 in 9.0 miles SSE 16.1 mph - 0.00 in   Overcast
1:53 PM 45.0°F 42.1°F 90% 30.25 in 5.0 miles SSE 13.8 mph - 0.00 in   Overcast
2:01 PM 44.6°F 42.8°F 93% 30.23 in 4.0 miles SSE 17.3 mph - N/A   Overcast
2:53 PM 45.0°F 42.1°F 90% 30.23 in 3.0 miles SSE 16.1 mph 23.0 mph N/A   Overcast
3:53 PM 45.0°F 42.1°F 90% 30.20 in 3.0 miles SSE 18.4 mph - N/A   Overcast
4:04 PM 44.6°F 42.8°F 93% 30.19 in 2.5 miles SSE 18.4 mph - N/A   Overcast
4:31 PM 44.6°F 42.8°F 93% 30.17 in 3.0 miles SSE 17.3 mph - N/A   Overcast
4:51 PM 44.6°F 42.8°F 93% 30.16 in 9.0 miles SSE 17.3 mph - N/A   Overcast
4:53 PM 45.0°F 41.0°F 86% 30.17 in 9.0 miles SSE 17.3 mph - N/A   Overcast
5:53 PM 44.1°F 41.0°F 89% 30.14 in 6.0 miles SE 16.1 mph - N/A   Overcast
6:53 PM 45.0°F 36.0°F 71% 30.11 in 10.0 miles SSE 15.0 mph 26.5 mph N/A   Overcast
7:30 PM 44.6°F 37.4°F 76% 30.08 in 10.0 miles SSE 17.3 mph 28.8 mph N/A   Overcast
7:53 PM 45.0°F 36.0°F 71% 30.08 in 10.0 miles SSE 21.9 mph 29.9 mph N/A   Overcast
8:00 PM 44.6°F 37.4°F 76% 30.06 in 10.0 miles SSE 20.7 mph 29.9 mph N/A   Overcast
8:53 PM 45.0°F 37.0°F 74% 30.04 in 10.0 miles SSE 25.3 mph 32.2 mph N/A   Overcast
9:09 PM 44.6°F 37.4°F 76% 30.02 in 10.0 miles SSE 20.7 mph 27.6 mph N/A   Overcast
9:53 PM 43.0°F 39.0°F 86% 30.00 in 6.0 miles SE 17.3 mph - 0.00 in Rain Light Rain
10:25 PM 42.8°F 39.2°F 87% 29.97 in 5.0 miles SE 15.0 mph - 0.01 in Rain Light Rain
10:53 PM 42.1°F 39.9°F 92% 29.97 in 6.0 miles SE 16.1 mph - 0.06 in Rain Light Rain
11:16 PM 42.8°F 39.2°F 87% 29.95 in 7.0 miles SSE 13.8 mph - 0.03 in Rain Light Rain
11:46 PM 44.6°F 41.0°F 87% 29.93 in 6.0 miles SSE 18.4 mph - 0.13 in Rain Light Rain
11:53 PM 44.1°F 41.0°F 89% 29.94 in 7.0 miles SE 18.4 mph - 0.14 in Rain Light Rain
Moon Phase
Feb. 24 Feb. 25 Mar. 04 Mar. 11 Mar. 19
Sunrise:07:04 AM (PST) Moon Rise:05:11 PM (PST)
Sunset:05:54 PM (PST) Moon Set:06:05 AM (PST)

Copyright © 2014 The Weather Underground, Inc.